TimeEDT,TemperatureF,Dew PointF,Humidity,Sea Level PressureIn,VisibilityMPH,Wind Direction,Wind SpeedMPH,Gust SpeedMPH,PrecipitationIn,Events,Conditions,WindDirDegrees,DateUTC
12:53 AM,46.9,45.0,93,29.96,6.0,Calm,Calm,-,N/A,,Clear,0,2012-10-03 04:53:00
1:53 AM,46.9,45.0,93,29.96,9.0,Calm,Calm,-,N/A,,Clear,0,2012-10-03 05:53:00
2:53 AM,46.9,44.1,90,29.96,9.0,South,3.5,-,N/A,,Clear,180,2012-10-03 06:53:00
3:53 AM,46.0,44.1,93,29.96,9.0,Calm,Calm,-,N/A,,Clear,0,2012-10-03 07:53:00
4:53 AM,43.0,41.0,93,29.97,7.0,Calm,Calm,-,N/A,,Clear,0,2012-10-03 08:53:00
5:53 AM,42.1,39.9,92,29.98,9.0,Calm,Calm,-,N/A,,Mostly Cloudy,0,2012-10-03 09:53:00
6:53 AM,44.1,42.1,93,29.99,10.0,Calm,Calm,-,N/A,,Mostly Cloudy,0,2012-10-03 10:53:00
7:53 AM,44.1,42.1,93,30.01,10.0,Calm,Calm,-,N/A,,Mostly Cloudy,0,2012-10-03 11:53:00
8:53 AM,48.0,45.0,89,30.01,10.0,Calm,Calm,-,N/A,,Mostly Cloudy,0,2012-10-03 12:53:00
9:53 AM,48.9,46.9,93,30.01,10.0,Calm,Calm,-,N/A,,Mostly Cloudy,0,2012-10-03 13:53:00
10:53 AM,55.0,48.9,80,30.00,10.0,Calm,Calm,-,N/A,,Mostly Cloudy,0,2012-10-03 14:53:00
11:53 AM,57.9,50.0,75,30.00,10.0,Calm,Calm,-,N/A,,Mostly Cloudy,0,2012-10-03 15:53:00
12:53 PM,61.0,51.1,70,29.99,10.0,Calm,Calm,-,N/A,,Overcast,0,2012-10-03 16:53:00
1:53 PM,63.0,53.1,70,29.98,10.0,NE,4.6,-,N/A,,Overcast,40,2012-10-03 17:53:00
2:53 PM,63.0,54.0,72,29.98,10.0,Calm,Calm,-,N/A,,Overcast,0,2012-10-03 18:53:00
3:53 PM,63.0,55.0,75,29.97,10.0,NE,3.5,-,N/A,,Overcast,40,2012-10-03 19:53:00
4:53 PM,63.0,55.0,75,29.97,10.0,North,4.6,-,N/A,,Overcast,360,2012-10-03 20:53:00
5:44 PM,62.6,55.4,77,29.96,10.0,Calm,Calm,-,N/A,,Overcast,0,2012-10-03 21:44:00
5:53 PM,63.0,55.9,78,29.97,10.0,Calm,Calm,-,N/A,,Overcast,0,2012-10-03 21:53:00
6:53 PM,62.1,57.0,84,29.97,10.0,Calm,Calm,-,N/A,,Overcast,0,2012-10-03 22:53:00
7:53 PM,62.1,57.0,84,29.99,10.0,Calm,Calm,-,0.00,Rain,Light Rain,0,2012-10-03 23:53:00
9:17 PM,60.8,57.2,88,29.98,5.0,Calm,Calm,-,0.00,Rain,Light Rain,0,2012-10-04 01:17:00
9:50 PM,60.8,57.2,88,29.99,2.5,Calm,Calm,-,0.04,Rain,Light Rain,0,2012-10-04 01:50:00
9:53 PM,60.1,57.9,93,30.00,2.5,Calm,Calm,-,0.04,Rain,Light Rain,0,2012-10-04 01:53:00
10:05 PM,60.8,57.2,88,29.99,2.0,Calm,Calm,-,0.01,Rain,Light Rain,0,2012-10-04 02:05:00
10:08 PM,60.8,57.2,88,29.99,1.5,Calm,Calm,-,0.01,Rain,Light Rain,0,2012-10-04 02:08:00
10:20 PM,60.8,57.2,88,29.99,2.0,SSW,3.5,-,0.03,Rain,Light Rain,210,2012-10-04 02:20:00
10:32 PM,59.0,57.2,94,29.99,2.5,SSW,3.5,-,0.05,Rain,Rain,210,2012-10-04 02:32:00
10:53 PM,59.0,57.0,93,29.99,5.0,Calm,Calm,-,0.08,Rain,Light Rain,0,2012-10-04 02:53:00
11:53 PM,59.0,57.0,93,30.00,10.0,Calm,Calm,-,0.00,,Overcast,0,2012-10-04 03:53:00